Location: Dittelbrunn
(50.0738°N, 10.2196°E)
Time: 23:28:33
(UTC+00:00)

NOSS 3-1 (C) - Pass Details

Date: 18 September 2020
Orbit: 743 x 1466 km, 63.4° (Epoch: 09 October)

Event Time Altitude Azimuth Distance (km) Brightness Sun altitude
Rises 17:45:13 0° 245° (WSW) 3,320 7.4 -4.0°
Reaches altitude 10° 17:47:35 10° 251° (WSW) 2,458 6.8 -4.4°
Maximum altitude 17:53:05 49° 326° (NW) 1,194 4.4 -5.3°
Drops below altitude 10° 17:59:37 10° 41° (NE) 2,909 5.7 -6.3°
Sets 18:02:38 0° 46° (NE) 3,989 6.3 -6.8°
